Weather History for KFDY - January, 2013

Change the Weather History Date:

Saturday, January 5, 2013

  Actual Average Record
Temperature  
Mean Temperature 26 °F -  
Max Temperature 35 °F 31 °F 59 °F (1955)
Min Temperature 16 °F 17 °F -10 °F (1981)
Degree Days  
Heating Degree Days 40    
Moisture  
Dew Point 22 °F    
Average Humidity 79    
Maximum Humidity 92    
Minimum Humidity 70    
Precipitation  
Precipitation 0.00 in - - ()
Sea Level Pressure  
Sea Level Pressure 30.23 in    
Wind  
Wind Speed 12 mph (SSW)    
Max Wind Speed 17 mph    
Max Gust Speed -    
Visibility 9 miles    
Events      
Averages and records for this station are not official NWS values.
T = Trace of Precipitation, MM = Missing Value Source: NWS Daily Summary

Daily Weather History Graph

Daily Weather History Graph

Search for Another Location

Airport or City:

Trip Planner

Search our weather history database for the weather conditions in past years. The results will help you decide how hot, cold, wet, or windy it might be!

Date:

Astronomy

Jan. 05, 2013 Rise Set
Actual Time 7:59 AM EST 5:20 PM EST
Civil Twilight 7:28 AM EST 5:51 PM EST
Nautical Twilight 6:54 AM EST 6:26 PM EST
Astronomical Twilight 6:21 AM EST 6:59 PM EST
Moon 1:03 AM EST (1/5) 12:11 PM EST (1/5)
Length of Visible Light 10h 22m
Length of Day
9h 21m
Last Quarter, 44% of the Moon is Illuminated
Jan 5
Last Quarter
Jan 11
New
Jan 18
First Quarter
Jan 26
Full
Feb 3
Last Quarter

Hourly Weather History & Observations

Time (EST) Temp. Windchill Dew Point Humidity Pressure Visibility Wind Dir Wind Speed Gust Speed Precip Events Conditions
12:53 AM 24.1 °F 10.6 °F 18.0 °F 77% 30.27 in 10.0 mi WSW 17.3 mph - N/A   Clear
1:53 AM 24.1 °F 12.0 °F 18.0 °F 77% 30.27 in 10.0 mi WSW 13.8 mph - N/A   Clear
2:53 AM 23.0 °F 12.4 °F 17.1 °F 78% 30.29 in 9.0 mi WSW 10.4 mph - N/A   Clear
3:53 AM 21.9 °F 12.5 °F 17.1 °F 82% 30.30 in 9.0 mi WSW 8.1 mph - N/A   Clear
4:53 AM 21.9 °F 13.4 °F 16.0 °F 78% 30.31 in 9.0 mi WSW 6.9 mph - N/A   Clear
6:53 AM 16.0 °F 6.3 °F 12.9 °F 88% 30.32 in 7.0 mi South 6.9 mph - N/A   Clear
7:53 AM 16.0 °F 5.3 °F 14.0 °F 92% 30.32 in 5.0 mi South 8.1 mph - N/A   Clear
8:53 AM 16.0 °F 5.3 °F 14.0 °F 92% 30.33 in 5.0 mi South 8.1 mph - N/A   Clear
9:53 AM 19.9 °F 10.1 °F 16.0 °F 85% 30.32 in 5.0 mi South 8.1 mph - N/A   Clear
10:53 AM 23.0 °F 12.4 °F 19.0 °F 85% 30.32 in 6.0 mi SSW 10.4 mph - N/A   Clear
11:53 AM 27.0 °F 16.1 °F 21.9 °F 81% 30.29 in 8.0 mi South 12.7 mph - N/A   Clear
12:53 PM 28.9 °F 21.1 °F 23.0 °F 78% 30.23 in 9.0 mi South 8.1 mph - N/A   Clear
1:53 PM 30.9 °F 21.2 °F 24.1 °F 76% 30.20 in 10.0 mi South 12.7 mph - N/A   Clear
2:53 PM 30.9 °F 21.7 °F 24.1 °F 76% 30.18 in 9.0 mi South 11.5 mph - N/A   Clear
3:53 PM 33.1 °F 23.0 °F 25.0 °F 72% 30.17 in 10.0 mi South 15.0 mph - N/A   Clear
4:53 PM 32.0 °F 23.6 °F 25.0 °F 75% 30.15 in 10.0 mi South 10.4 mph - N/A   Overcast
5:53 PM 34.0 °F 25.0 °F 25.0 °F 70% 30.15 in 10.0 mi SSW 12.7 mph - N/A   Overcast
6:53 PM 35.1 °F 25.9 °F 26.1 °F 70% 30.15 in 10.0 mi SSW 13.8 mph - N/A   Overcast
7:53 PM 35.1 °F 27.4 °F 27.0 °F 72% 30.15 in 10.0 mi SW 10.4 mph - N/A   Overcast
8:53 PM 34.0 °F 25.0 °F 27.0 °F 75% 30.13 in 10.0 mi SSW 12.7 mph - N/A   Overcast
9:53 PM 33.1 °F 23.9 °F 28.0 °F 82% 30.13 in 9.0 mi SSW 12.7 mph - N/A   Overcast
10:53 PM 33.1 °F 23.9 °F 28.0 °F 82% 30.12 in 10.0 mi SSW 12.7 mph - 0.00 in   Overcast
11:53 PM 34.0 °F 24.2 °F 28.9 °F 82% 30.10 in 9.0 mi SSW 15.0 mph - N/A   Overcast